Time,TemperatureF,DewpointF,PressureIn,WindDirection,WindDirectionDegrees,WindSpeedMPH,WindSpeedGustMPH,Humidity,HourlyPrecipIn,Conditions,Clouds,dailyrainin,SoftwareType,DateUTC
2013-06-27 00:13:00,69.2,69.0,29.73,North,9,0.0,1.0,98,0.00,,,0.00,weatherlink.com 1.10,2013-06-27 04:13:00,
2013-06-27 00:28:00,69.2,69.0,29.72,North,9,0.0,0.0,98,0.00,,,0.00,weatherlink.com 1.10,2013-06-27 04:28:00,
2013-06-27 00:43:00,69.2,69.0,29.71,North,9,0.0,1.0,98,0.00,,,0.00,weatherlink.com 1.10,2013-06-27 04:43:00,
2013-06-27 00:58:00,69.3,69.0,29.72,North,9,0.0,0.0,98,0.00,,,0.00,weatherlink.com 1.10,2013-06-27 04:58:00,
2013-06-27 01:13:00,69.3,69.0,29.71,North,9,0.0,0.0,98,0.00,,,0.00,weatherlink.com 1.10,2013-06-27 05:13:00,
2013-06-27 01:28:00,69.5,69.0,29.70,North,9,0.0,0.0,98,0.00,,,0.00,weatherlink.com 1.10,2013-06-27 05:28:00,
2013-06-27 01:43:00,69.5,69.0,29.70,North,9,0.0,1.0,98,0.00,,,0.00,weatherlink.com 1.10,2013-06-27 05:43:00,
2013-06-27 01:58:00,69.4,69.0,29.70,North,9,0.0,1.0,98,0.00,,,0.00,weatherlink.com 1.10,2013-06-27 05:58:00,
2013-06-27 02:13:00,69.5,69.0,29.70,North,9,0.0,0.0,98,0.00,,,0.00,weatherlink.com 1.10,2013-06-27 06:13:00,
2013-06-27 02:28:00,69.6,69.0,29.70,North,9,0.0,0.0,98,0.00,,,0.00,weatherlink.com 1.10,2013-06-27 06:28:00,
2013-06-27 02:43:00,69.7,69.0,29.70,North,9,0.0,0.0,98,0.00,,,0.00,weatherlink.com 1.10,2013-06-27 06:43:00,
2013-06-27 02:58:00,69.6,69.0,29.69,North,9,0.0,0.0,98,0.00,,,0.00,weatherlink.com 1.10,2013-06-27 06:58:00,
2013-06-27 03:13:00,69.6,69.0,29.69,North,9,0.0,2.0,98,0.00,,,0.00,weatherlink.com 1.10,2013-06-27 07:13:00,
2013-06-27 03:28:00,69.3,69.0,29.69,North,9,0.0,0.0,98,0.00,,,0.00,weatherlink.com 1.10,2013-06-27 07:28:00,
2013-06-27 03:43:00,68.8,68.0,29.69,North,9,0.0,0.0,98,0.00,,,0.00,weatherlink.com 1.10,2013-06-27 07:43:00,
2013-06-27 03:58:00,68.3,68.0,29.69,North,9,0.0,0.0,98,0.00,,,0.00,weatherlink.com 1.10,2013-06-27 07:58:00,
2013-06-27 04:13:00,67.9,67.0,29.68,North,9,0.0,0.0,98,0.01,,,0.01,weatherlink.com 1.10,2013-06-27 08:13:00,
2013-06-27 04:28:00,67.6,67.0,29.68,North,9,0.0,0.0,98,0.01,,,0.01,weatherlink.com 1.10,2013-06-27 08:28:00,
2013-06-27 04:43:00,67.4,67.0,29.68,North,9,0.0,0.0,98,0.01,,,0.01,weatherlink.com 1.10,2013-06-27 08:43:00,
2013-06-27 04:58:00,67.0,67.0,29.69,North,9,0.0,0.0,98,0.01,,,0.01,weatherlink.com 1.10,2013-06-27 08:58:00,
2013-06-27 05:13:00,67.0,67.0,29.69,North,9,0.0,0.0,99,0.00,,,0.01,weatherlink.com 1.10,2013-06-27 09:13:00,
2013-06-27 05:28:00,66.5,66.0,29.69,North,9,0.0,0.0,98,0.00,,,0.01,weatherlink.com 1.10,2013-06-27 09:28:00,
2013-06-27 05:43:00,66.1,66.0,29.69,North,9,0.0,0.0,99,0.00,,,0.01,weatherlink.com 1.10,2013-06-27 09:43:00,
2013-06-27 05:58:00,65.5,65.0,29.69,North,9,0.0,0.0,98,0.00,,,0.01,weatherlink.com 1.10,2013-06-27 09:58:00,
2013-06-27 06:13:00,65.7,65.0,29.70,North,9,0.0,0.0,99,0.00,,,0.01,weatherlink.com 1.10,2013-06-27 10:13:00,
2013-06-27 06:28:00,64.7,64.0,29.71,North,9,0.0,0.0,98,0.00,,,0.01,weatherlink.com 1.10,2013-06-27 10:28:00,
2013-06-27 06:43:00,64.5,64.0,29.71,North,9,0.0,0.0,98,0.00,,,0.01,weatherlink.com 1.10,2013-06-27 10:43:00,
2013-06-27 06:58:00,65.7,65.0,29.71,North,9,0.0,1.0,99,0.00,,,0.01,weatherlink.com 1.10,2013-06-27 10:58:00,
2013-06-27 07:13:00,67.4,67.0,29.72,NW,325,2.0,3.0,99,0.00,,,0.01,weatherlink.com 1.10,2013-06-27 11:13:00,
2013-06-27 07:28:00,68.3,68.0,29.72,NW,325,2.0,3.0,99,0.00,,,0.01,weatherlink.com 1.10,2013-06-27 11:28:00,
2013-06-27 07:43:00,68.9,69.0,29.71,NW,311,3.0,6.0,99,0.00,,,0.01,weatherlink.com 1.10,2013-06-27 11:43:00,
2013-06-27 07:58:00,69.0,69.0,29.70,NW,306,4.0,5.0,99,0.00,,,0.01,weatherlink.com 1.10,2013-06-27 11:58:00,
2013-06-27 08:13:00,69.3,69.0,29.71,NW,307,2.0,5.0,99,0.00,,,0.01,weatherlink.com 1.10,2013-06-27 12:13:00,
2013-06-27 08:28:00,69.5,69.0,29.71,WNW,301,0.0,6.0,99,0.00,,,0.01,weatherlink.com 1.10,2013-06-27 12:28:00,
2013-06-27 08:43:00,69.3,69.0,29.71,WNW,300,4.0,6.0,99,0.00,,,0.01,weatherlink.com 1.10,2013-06-27 12:43:00,
2013-06-27 08:58:00,69.4,69.0,29.71,NW,315,3.0,6.0,99,0.00,,,0.01,weatherlink.com 1.10,2013-06-27 12:58:00,
2013-06-27 09:13:00,69.7,69.0,29.71,NNW,333,3.0,4.0,99,0.00,,,0.01,weatherlink.com 1.10,2013-06-27 13:13:00,
2013-06-27 09:28:00,70.0,70.0,29.71,NW,305,3.0,5.0,99,0.00,,,0.01,weatherlink.com 1.10,2013-06-27 13:28:00,
2013-06-27 09:43:00,70.3,70.0,29.72,NW,311,0.0,6.0,98,0.00,,,0.01,weatherlink.com 1.10,2013-06-27 13:43:00,
2013-06-27 09:58:00,70.3,69.0,29.72,NW,324,5.0,9.0,97,0.00,,,0.01,weatherlink.com 1.10,2013-06-27 13:58:00,
2013-06-27 10:13:00,71.2,70.0,29.71,NNW,348,2.0,8.0,95,0.00,,,0.01,weatherlink.com 1.10,2013-06-27 14:13:00,
2013-06-27 10:29:00,71.5,69.0,29.71,WNW,295,5.0,10.0,93,0.00,,,0.01,weatherlink.com 1.10,2013-06-27 14:29:00,
2013-06-27 10:44:00,72.1,70.0,29.71,WNW,298,5.0,8.0,94,0.00,,,0.01,weatherlink.com 1.10,2013-06-27 14:44:00,
2013-06-27 10:59:00,72.4,70.0,29.72,NW,307,4.0,8.0,93,0.00,,,0.01,weatherlink.com 1.10,2013-06-27 14:59:00,
2013-06-27 11:14:00,73.4,71.0,29.72,NW,317,6.0,6.0,93,0.00,,,0.01,weatherlink.com 1.10,2013-06-27 15:14:00,
2013-06-27 11:29:00,74.0,71.0,29.73,NW,313,8.0,10.0,90,0.00,,,0.01,weatherlink.com 1.10,2013-06-27 15:29:00,
2013-06-27 11:44:00,75.1,72.0,29.73,NW,310,4.0,9.0,90,0.00,,,0.01,weatherlink.com 1.10,2013-06-27 15:44:00,
2013-06-27 11:59:00,76.0,72.0,29.72,NW,306,0.0,13.0,88,0.00,,,0.01,weatherlink.com 1.10,2013-06-27 15:59:00,
2013-06-27 12:14:00,76.8,72.0,29.72,NW,307,6.0,10.0,86,0.00,,,0.01,weatherlink.com 1.10,2013-06-27 16:14:00,
2013-06-27 12:29:00,77.5,73.0,29.72,WNW,292,5.0,12.0,85,0.00,,,0.01,weatherlink.com 1.10,2013-06-27 16:29:00,
2013-06-27 12:44:00,78.0,73.0,29.72,NW,323,5.0,10.0,83,0.00,,,0.01,weatherlink.com 1.10,2013-06-27 16:44:00,
2013-06-27 12:59:00,78.7,73.0,29.72,NW,320,5.0,12.0,83,0.00,,,0.01,weatherlink.com 1.10,2013-06-27 16:59:00,
2013-06-27 13:14:00,79.0,74.0,29.71,NW,326,5.0,8.0,83,0.00,,,0.01,weatherlink.com 1.10,2013-06-27 17:14:00,
2013-06-27 13:29:00,79.6,73.0,29.71,NNW,346,3.0,9.0,80,0.00,,,0.01,weatherlink.com 1.10,2013-06-27 17:29:00,
2013-06-27 13:44:00,80.1,73.0,29.71,WNW,292,8.0,12.0,80,0.00,,,0.01,weatherlink.com 1.10,2013-06-27 17:44:00,
2013-06-27 13:59:00,81.4,74.0,29.71,NW,312,4.0,12.0,78,0.00,,,0.01,weatherlink.com 1.10,2013-06-27 17:59:00,
2013-06-27 14:14:00,81.9,73.0,29.70,NW,319,7.0,7.0,75,0.00,,,0.01,weatherlink.com 1.10,2013-06-27 18:14:00,
2013-06-27 14:29:00,82.1,74.0,29.70,NW,307,9.0,10.0,77,0.00,,,0.01,weatherlink.com 1.10,2013-06-27 18:29:00,
2013-06-27 14:44:00,82.3,73.0,29.70,WSW,243,8.0,9.0,73,0.00,,,0.01,weatherlink.com 1.10,2013-06-27 18:44:00,
2013-06-27 14:59:00,83.0,73.0,29.70,NW,306,5.0,8.0,72,0.00,,,0.01,weatherlink.com 1.10,2013-06-27 18:59:00,
2013-06-27 15:14:00,83.4,75.0,29.70,WNW,285,1.0,9.0,75,0.00,,,0.01,weatherlink.com 1.10,2013-06-27 19:14:00,
2013-06-27 15:29:00,83.4,74.0,29.70,WNW,300,5.0,9.0,72,0.00,,,0.01,weatherlink.com 1.10,2013-06-27 19:29:00,
2013-06-27 15:44:00,82.8,72.0,29.70,NNW,344,5.0,13.0,70,0.00,,,0.01,weatherlink.com 1.10,2013-06-27 19:44:00,
2013-06-27 15:59:00,83.5,74.0,29.69,West,259,1.0,12.0,72,0.00,,,0.01,weatherlink.com 1.10,2013-06-27 19:59:00,
2013-06-27 16:14:00,83.7,73.0,29.69,WNW,285,3.0,11.0,70,0.00,,,0.01,weatherlink.com 1.10,2013-06-27 20:14:00,
2013-06-27 16:29:00,83.3,72.0,29.68,NNW,344,5.0,12.0,69,0.00,,,0.01,weatherlink.com 1.10,2013-06-27 20:29:00,
2013-06-27 16:44:00,83.7,73.0,29.68,SW,221,2.0,10.0,70,0.00,,,0.01,weatherlink.com 1.10,2013-06-27 20:44:00,
2013-06-27 16:59:00,83.5,73.0,29.67,West,277,1.0,12.0,71,0.00,,,0.01,weatherlink.com 1.10,2013-06-27 20:59:00,
2013-06-27 17:14:00,84.2,73.0,29.66,West,280,2.0,11.0,69,0.00,,,0.01,weatherlink.com 1.10,2013-06-27 21:14:00,
2013-06-27 17:29:00,83.8,72.0,29.66,NW,307,4.0,11.0,68,0.00,,,0.01,weatherlink.com 1.10,2013-06-27 21:29:00,
2013-06-27 17:44:00,83.9,72.0,29.66,West,263,1.0,11.0,68,0.00,,,0.01,weatherlink.com 1.10,2013-06-27 21:44:00,
2013-06-27 17:59:00,83.0,72.0,29.66,NW,320,3.0,13.0,70,0.00,,,0.01,weatherlink.com 1.10,2013-06-27 21:59:00,
2013-06-27 18:14:00,83.6,73.0,29.66,NW,317,0.0,7.0,71,0.00,,,0.01,weatherlink.com 1.10,2013-06-27 22:14:00,
2013-06-27 18:29:00,83.4,72.0,29.65,NNE,17,2.0,11.0,68,0.00,,,0.01,weatherlink.com 1.10,2013-06-27 22:29:00,
2013-06-27 18:44:00,81.9,72.0,29.66,WNW,292,0.0,11.0,72,0.00,,,0.01,weatherlink.com 1.10,2013-06-27 22:44:00,
2013-06-27 18:59:00,81.0,72.0,29.66,NW,304,2.0,6.0,74,0.00,,,0.01,weatherlink.com 1.10,2013-06-27 22:59:00,
2013-06-27 19:14:00,80.2,72.0,29.66,WNW,301,1.0,6.0,77,0.00,,,0.01,weatherlink.com 1.10,2013-06-27 23:14:00,
2013-06-27 19:29:00,79.4,73.0,29.64,WNW,301,0.0,3.0,80,0.00,,,0.01,weatherlink.com 1.10,2013-06-27 23:29:00,
2013-06-27 19:59:00,78.4,73.0,29.64,WNW,301,0.0,1.0,82,0.00,,,0.01,weatherlink.com 1.10,2013-06-27 23:59:00,
2013-06-27 20:44:00,78.1,72.0,29.66,South,171,1.0,5.0,80,0.00,,,0.01,weatherlink.com 1.10,2013-06-28 00:44:00,
2013-06-27 21:00:00,70.1,66.0,29.64,SSE,148,0.0,16.0,86,0.21,,,0.22,weatherlink.com 1.10,2013-06-28 01:00:00,
2013-06-27 21:15:00,68.9,66.0,29.65,SSE,164,0.0,6.0,91,0.21,,,0.22,weatherlink.com 1.10,2013-06-28 01:15:00,
2013-06-27 21:30:00,68.3,66.0,29.65,South,176,0.0,4.0,92,0.21,,,0.22,weatherlink.com 1.10,2013-06-28 01:30:00,
2013-06-27 21:45:00,68.3,67.0,29.65,South,176,0.0,1.0,94,0.21,,,0.22,weatherlink.com 1.10,2013-06-28 01:45:00,
2013-06-27 22:00:00,68.0,66.0,29.65,South,175,0.0,1.0,94,0.00,,,0.22,weatherlink.com 1.10,2013-06-28 02:00:00,
2013-06-27 22:15:00,67.9,67.0,29.64,South,175,0.0,1.0,95,0.00,,,0.22,weatherlink.com 1.10,2013-06-28 02:15:00,
2013-06-27 22:45:00,67.7,67.0,29.64,South,175,0.0,0.0,96,0.00,,,0.22,weatherlink.com 1.10,2013-06-28 02:45:00,
2013-06-27 23:00:00,67.4,66.0,29.64,South,175,0.0,0.0,96,0.00,,,0.22,weatherlink.com 1.10,2013-06-28 03:00:00,
2013-06-27 23:15:00,67.2,66.0,29.62,South,175,0.0,1.0,97,0.00,,,0.22,weatherlink.com 1.10,2013-06-28 03:15:00,
2013-06-27 23:45:00,66.8,66.0,29.62,South,175,0.0,0.0,96,0.00,,,0.22,weatherlink.com 1.10,2013-06-28 03:45:00,